Simultaneous Nadir Overpasses (SNOs) Predictions

Prediction of SNOs between METOP-B and TERRA Satellite Orbit:

Table of predicted SNOs for the next 14.0 days since TLE Epoch: 8/29/2015
Index Date (METOP-B) Time (METOP-B) Lat,Lon (METOP-B) SZA (METOP-B ) Date (TERRA) Time (TERRA) Lat,Lon (TERRA) SZA (TERRA ) Distance(km) Time Diff (sec)
1 08/30/2015 05:26:55 -81.31, -34.45 104.99 08/30/2015 05:27:31 -81.32, -34.27 104.95 2.99 36
2 08/30/2015 06:17:34 81.32, 133.45 75.10 08/30/2015 06:16:57 81.32, 133.47 75.08 0.40 37
3 09/02/2015 01:01:16 -81.32, 32.16 103.93 09/02/2015 01:01:42 -81.32, 32.29 103.90 2.26 26
4 09/02/2015 01:51:55 81.32,-159.96 76.15 09/02/2015 01:51:08 81.33,-159.99 76.13 0.67 47
5 09/04/2015 20:35:38 -81.32, 98.73 102.86 09/04/2015 20:35:54 -81.32, 98.73 102.85 0.46 16
6 09/
